Location: ?kun?ru
(16.3916°N, 80.8194°E)
Time: 15:05:12
(UTC+00:00)

SJ-6B - Pass Details

Date: 19 May 2025
Orbit: 468 x 518 km, 97.4° (Epoch: 18 June)

Event Time Altitude Azimuth Distance (km) Brightness Sun altitude
Exits shadow 14:11:56 16° 175° (S) 1,341 4.5 -16.3°
Maximum altitude 14:14:44 74° 260° (W) 515 2.7 -16.9°
Drops below altitude 10° 14:18:23 10° 345° (NNW) 1,701 5.9 -17.7°
Sets 14:20:29 0° 347° (NNW) 2,594 6.9 -18.1°
